Showing default

ORBCOMM FM 115, 41186

Orbit data source: Space-Track

ORBCOMM FM 115, 41186 is a payload satellite owned by Orbcomm (US) in LEO that was launched on Tue, 22 Dec 2015 UTC via an FALCON 9 launch vehicle from the Air Force Eastern Test Range (AFETR). Payloads include a variety of satellites, spacecraft, and rockets equipped with specific instruments for various scientific and technological missions. These include communications satellites like Starlink; space stations such as the ISS; scientific satellites like the Hubble; Earth observation satellites from companies like Planet Labs, Umbra, and HawkEye 360; GPS; miniature CubeSats for education and research; and military/defense satellites.

Loading next visibility...
ORBCOMM FM 115 details
Identifier
41186, 2015-081H
Orbit
LEO
Last TLE update10 hours ago
Origin
Flag of USOrbcomm (US / ORB)
ManufacturerSNC Louisville
MissionNon-operational Commercial Communications
Bus & MotorSN-100A, Unknown motor
Mass172 kg wet, 158 kg dry
Launch date (UTC)
2015-12-22 (9 years ago)
Launch vehicle
FALCON 9
Launch site
Air Force Eastern Test Range (AFETR)
Object type
Payload
Rocket body
Debris
Shape & HBRBox + 1 Pan + 1 Ant, 13 m
Radar Cross Section2.222 m², Medium (>0.1 m² and < 1m²)

Expand to show TLE details & history

TLE from 10 hours ago
0 ORBCOMM FM 115
1 41186U 15081H   24361.10977576  .00002684  00000-0  56631-3 0  9997
2 41186  46.9965 142.3568 0001262 277.0320  83.0424 14.61845790482440
Epoch: 2024-12-26T02:38Z
Definitive object data (Epoch: 2024-12-26T02:38:04.625Z)
Latitude0.00002°
Longitude7.74366°
Altitude687.328 km
Speed7.514 km/s
True Right ascension09h 29m 25s
True Declination0° 00' 00"
Sunlit
Object was in full shadow at TLE epoch
Visualization TLE readout
Latitude-14.93976°
Longitude-8.51706°
Altitude690.115 km
Speed7.512 km/s
Apparent Right ascension05h 22m 12s
Apparent Declination-48° 12' 03"
Sunlit
Object is in full shadow
Visualization observer readout
Local Sidereal Time11:44:29
Azimuth231.363° WSW
Elevation-31.867°
Doppler factor1
Orbital elements
Apogee altitude689.349 km
Perigee altitude687.566 km
Semi-major axis7,066.595 km
Eccentricity0.0001262
Inclination46.9965°
RAAN142.3568°
Arg. of periapsis277.032°
True anomaly83.05676°
Mean anomaly83.0424°
Eccentric anomaly83.04958°
Mean motion3.65366 °/min
BSTAR0.00056631
Orbital period98.53 mins
Loading maneuver chart data...
Loading historical data...
Loading historical data...
Loading historical data...
Loading historical data...
Loading historical data...
Loading historical data...
Loading historical data...

ORBCOMM FM 115 Visibility forecast

Observer location: undefined°, undefined

Span
Click to sort rows by Start time (UTC) header in descending order
Start Az.
Max El. time (UTC)
Max El. Az.
Max El.
End time (UTC)
End Az.
9 mins2024-12-26 12:38:58.823Z220.167° SW2024-12-26 12:43:58.823Z121.508° SE37.988°2024-12-26 12:47:58.823Z69.193° E
7 mins2024-12-26 14:23:58.823Z276.817° WNW2024-12-26 14:26:58.823Z349.397° N37.154°2024-12-26 14:30:58.823Z55.979° ENE
7 mins2024-12-26 16:07:58.823Z308.146° NW2024-12-26 16:10:58.823Z8.706° NNE30.355°2024-12-26 16:14:58.823Z68.206° E
8 mins2024-12-26 17:50:58.823Z304.421° NW2024-12-26 17:54:58.823Z47.159° ENE40.998°2024-12-26 17:58:58.823Z102.99° ESE
7 mins2024-12-26 19:34:58.823Z272.861° WNW2024-12-26 19:37:58.823Z211.884° SW30.156°2024-12-26 19:41:58.823Z155.073° SSE
6 mins2024-12-27 11:36:58.823Z185.044° SSW2024-12-27 11:39:58.823Z130.552° SE25.816°2024-12-27 11:42:58.823Z85.133° E
|